#datetime,building,power
2023-05-22T00:00:00,mcc,43.89
2023-05-22T00:01:00,mcc,41.41
2023-05-22T00:02:00,mcc,44.56
2023-05-22T00:03:00,mcc,42.77
2023-05-22T00:04:00,mcc,42.69
2023-05-22T00:05:00,mcc,42.69
2023-05-22T00:06:00,mcc,42.54
2023-05-22T00:07:00,mcc,39.95
2023-05-22T00:08:00,mcc,41.74
2023-05-22T00:09:00,mcc,43.20
2023-05-22T00:10:00,mcc,39.49
2023-05-22T00:11:00,mcc,39.29
2023-05-22T00:12:00,mcc,35.14
2023-05-22T00:13:00,mcc,32.84
2023-05-22T00:14:00,mcc,33.03
2023-05-22T00:15:00,mcc,35.41
2023-05-22T00:16:00,mcc,32.93
2023-05-22T00:17:00,mcc,35.38
2023-05-22T00:18:00,mcc,36.56
2023-05-22T00:19:00,mcc,34.49
2023-05-22T00:20:00,mcc,36.19
2023-05-22T00:21:00,mcc,38.33
2023-05-22T00:22:00,mcc,37.41
2023-05-22T00:23:00,mcc,38.15
2023-05-22T00:24:00,mcc,38.15
2023-05-22T00:25:00,mcc,37.09
2023-05-22T00:26:00,mcc,37.48
2023-05-22T00:27:00,mcc,39.41
2023-05-22T00:28:00,mcc,40.17
2023-05-22T00:29:00,mcc,37.00
2023-05-22T00:30:00,mcc,36.94
2023-05-22T00:31:00,mcc,38.35
2023-05-22T00:32:00,mcc,35.45
2023-05-22T00:33:00,mcc,32.77
2023-05-22T00:34:00,mcc,34.28
2023-05-22T00:35:00,mcc,33.83
2023-05-22T00:36:00,mcc,32.83
2023-05-22T00:37:00,mcc,33.46
2023-05-22T00:38:00,mcc,33.00
2023-05-22T00:39:00,mcc,31.54
2023-05-22T00:40:00,mcc,31.85
2023-05-22T00:41:00,mcc,31.86
2023-05-22T00:42:00,mcc,34.46
2023-05-22T00:43:00,mcc,32.50
2023-05-22T00:44:00,mcc,36.77
2023-05-22T00:45:00,mcc,33.44
2023-05-22T00:46:00,mcc,32.59
2023-05-22T00:47:00,mcc,35.11
2023-05-22T00:48:00,mcc,32.80
2023-05-22T00:49:00,mcc,39.11
2023-05-22T00:50:00,mcc,33.21
2023-05-22T00:51:00,mcc,33.87
2023-05-22T00:52:00,mcc,34.50
2023-05-22T00:53:00,mcc,34.93
2023-05-22T00:54:00,mcc,38.55
2023-05-22T00:55:00,mcc,37.49
2023-05-22T00:56:00,mcc,36.19
2023-05-22T00:57:00,mcc,47.48
2023-05-22T00:58:00,mcc,44.86
2023-05-22T00:59:00,mcc,44.52
2023-05-22T01:00:00,mcc,45.66
2023-05-22T01:01:00,mcc,34.52
2023-05-22T01:02:00,mcc,32.91
2023-05-22T01:03:00,mcc,38.09
2023-05-22T01:04:00,mcc,33.38
2023-05-22T01:05:00,mcc,33.88
2023-05-22T01:06:00,mcc,32.32
2023-05-22T01:07:00,mcc,30.93
2023-05-22T01:08:00,mcc,32.52
2023-05-22T01:09:00,mcc,30.02
2023-05-22T01:10:00,mcc,31.65
2023-05-22T01:11:00,mcc,33.78
2023-05-22T01:12:00,mcc,47.11
2023-05-22T01:13:00,mcc,35.35
2023-05-22T01:14:00,mcc,34.75
2023-05-22T01:15:00,mcc,33.74
2023-05-22T01:16:00,mcc,37.54
2023-05-22T01:17:00,mcc,35.05
2023-05-22T01:18:00,mcc,35.00
2023-05-22T01:19:00,mcc,35.99
2023-05-22T01:20:00,mcc,34.09
2023-05-22T01:21:00,mcc,36.26
2023-05-22T01:22:00,mcc,35.51
2023-05-22T01:23:00,mcc,35.09
2023-05-22T01:24:00,mcc,34.56
2023-05-22T01:25:00,mcc,34.89
2023-05-22T01:26:00,mcc,38.47
2023-05-22T01:27:00,mcc,37.98
2023-05-22T01:28:00,mcc,37.35
2023-05-22T01:29:00,mcc,46.55
2023-05-22T01:30:00,mcc,35.69
2023-05-22T01:31:00,mcc,35.34
2023-05-22T01:32:00,mcc,36.45
2023-05-22T01:33:00,mcc,32.14
2023-05-22T01:34:00,mcc,29.70
2023-05-22T01:35:00,mcc,32.70
2023-05-22T01:36:00,mcc,30.41
2023-05-22T01:37:00,mcc,30.64
2023-05-22T01:38:00,mcc,31.62
2023-05-22T01:39:00,mcc,32.99
2023-05-22T01:40:00,mcc,30.52
2023-05-22T01:41:00,mcc,31.03
2023-05-22T01:42:00,mcc,34.18
2023-05-22T01:43:00,mcc,34.67
2023-05-22T01:44:00,mcc,35.28
2023-05-22T01:45:00,mcc,37.91
2023-05-22T01:46:00,mcc,35.99
2023-05-22T01:47:00,mcc,35.61
2023-05-22T01:48:00,mcc,34.47
2023-05-22T01:49:00,mcc,34.52
2023-05-22T01:50:00,mcc,33.95
2023-05-22T01:51:00,mcc,34.08
2023-05-22T01:52:00,mcc,33.05
2023-05-22T01:53:00,mcc,33.83
2023-05-22T01:54:00,mcc,35.29
2023-05-22T01:55:00,mcc,38.49
2023-05-22T01:56:00,mcc,35.00
2023-05-22T01:57:00,mcc,35.21
2023-05-22T01:58:00,mcc,36.20
2023-05-22T01:59:00,mcc,35.30
2023-05-22T02:00:00,mcc,36.26
2023-05-22T02:01:00,mcc,37.71
2023-05-22T02:02:00,mcc,35.44
2023-05-22T02:03:00,mcc,34.99
2023-05-22T02:04:00,mcc,36.59
2023-05-22T02:05:00,mcc,32.34
2023-05-22T02:06:00,mcc,32.74
2023-05-22T02:07:00,mcc,31.50
2023-05-22T02:08:00,mcc,30.73
2023-05-22T02:09:00,mcc,35.40
2023-05-22T02:10:00,mcc,33.76
2023-05-22T02:11:00,mcc,34.87
2023-05-22T02:12:00,mcc,35.87
2023-05-22T02:13:00,mcc,33.86
2023-05-22T02:14:00,mcc,36.97
2023-05-22T02:15:00,mcc,37.39
2023-05-22T02:16:00,mcc,37.79
2023-05-22T02:17:00,mcc,40.40
2023-05-22T02:18:00,mcc,38.51
2023-05-22T02:19:00,mcc,37.67
2023-05-22T02:20:00,mcc,41.53
2023-05-22T02:21:00,mcc,38.59
2023-05-22T02:22:00,mcc,35.79
2023-05-22T02:23:00,mcc,34.23
2023-05-22T02:24:00,mcc,36.85
2023-05-22T02:25:00,mcc,32.21
2023-05-22T02:26:00,mcc,32.47
2023-05-22T02:27:00,mcc,34.94
2023-05-22T02:28:00,mcc,33.62
2023-05-22T02:29:00,mcc,34.74
2023-05-22T02:30:00,mcc,41.50
2023-05-22T02:31:00,mcc,43.30
2023-05-22T02:32:00,mcc,34.80
2023-05-22T02:33:00,mcc,37.53
2023-05-22T02:34:00,mcc,37.56
2023-05-22T02:35:00,mcc,36.06
2023-05-22T02:36:00,mcc,36.40
2023-05-22T02:37:00,mcc,36.53
2023-05-22T02:38:00,mcc,32.17
2023-05-22T02:39:00,mcc,33.17
2023-05-22T02:40:00,mcc,33.57
2023-05-22T02:41:00,mcc,33.27
2023-05-22T02:42:00,mcc,35.95
2023-05-22T02:43:00,mcc,37.75
2023-05-22T02:44:00,mcc,34.54
2023-05-22T02:45:00,mcc,33.99
2023-05-22T02:46:00,mcc,35.70
2023-05-22T02:47:00,mcc,31.81
2023-05-22T02:48:00,mcc,31.88
2023-05-22T02:49:00,mcc,33.46
2023-05-22T02:50:00,mcc,40.03
2023-05-22T02:51:00,mcc,41.46
2023-05-22T02:52:00,mcc,33.15
2023-05-22T02:53:00,mcc,36.50
2023-05-22T02:54:00,mcc,33.35
2023-05-22T02:55:00,mcc,32.60
2023-05-22T02:56:00,mcc,35.29
2023-05-22T02:57:00,mcc,33.28
2023-05-22T02:58:00,mcc,34.26
2023-05-22T02:59:00,mcc,36.84
2023-05-22T03:00:00,mcc,35.38
2023-05-22T03:01:00,mcc,35.68
2023-05-22T03:02:00,mcc,37.89
2023-05-22T03:03:00,mcc,34.23
2023-05-22T03:04:00,mcc,35.86
2023-05-22T03:05:00,mcc,35.69
2023-05-22T03:06:00,mcc,38.42
2023-05-22T03:07:00,mcc,36.87
2023-05-22T03:08:00,mcc,37.92
2023-05-22T03:09:00,mcc,41.78
2023-05-22T03:10:00,mcc,38.69
2023-05-22T03:11:00,mcc,45.70
2023-05-22T03:12:00,mcc,36.61
2023-05-22T03:13:00,mcc,33.62
2023-05-22T03:14:00,mcc,33.98
2023-05-22T03:15:00,mcc,33.26
2023-05-22T03:16:00,mcc,34.95
2023-05-22T03:17:00,mcc,35.50
2023-05-22T03:18:00,mcc,34.92
2023-05-22T03:19:00,mcc,38.02
2023-05-22T03:20:00,mcc,35.62
2023-05-22T03:21:00,mcc,33.15
2023-05-22T03:22:00,mcc,35.26
2023-05-22T03:23:00,mcc,32.70
2023-05-22T03:24:00,mcc,33.08
2023-05-22T03:25:00,mcc,36.69
2023-05-22T03:26:00,mcc,33.24
2023-05-22T03:27:00,mcc,32.03
2023-05-22T03:28:00,mcc,34.06
2023-05-22T03:29:00,mcc,33.58
2023-05-22T03:30:00,mcc,30.76
2023-05-22T03:31:00,mcc,31.25
2023-05-22T03:32:00,mcc,41.75
2023-05-22T03:33:00,mcc,33.39
2023-05-22T03:34:00,mcc,32.78
2023-05-22T03:35:00,mcc,33.76
2023-05-22T03:36:00,mcc,44.60
2023-05-22T03:37:00,mcc,46.59
2023-05-22T03:38:00,mcc,45.72
2023-05-22T03:39:00,mcc,43.78
2023-05-22T03:40:00,mcc,36.70
2023-05-22T03:41:00,mcc,37.89
2023-05-22T03:42:00,mcc,35.12
2023-05-22T03:43:00,mcc,33.49
2023-05-22T03:44:00,mcc,32.79
2023-05-22T03:45:00,mcc,33.84
2023-05-22T03:46:00,mcc,32.28
2023-05-22T03:47:00,mcc,31.52
2023-05-22T03:48:00,mcc,46.61
2023-05-22T03:49:00,mcc,44.63
2023-05-22T03:50:00,mcc,32.87
2023-05-22T03:51:00,mcc,33.32
2023-05-22T03:52:00,mcc,33.91
2023-05-22T03:53:00,mcc,34.25
2023-05-22T03:54:00,mcc,33.38
2023-05-22T03:55:00,mcc,34.58
2023-05-22T03:56:00,mcc,32.31
2023-05-22T03:57:00,mcc,32.00
2023-05-22T03:58:00,mcc,35.30
2023-05-22T03:59:00,mcc,31.85
2023-05-22T04:00:00,mcc,31.64
2023-05-22T04:01:00,mcc,32.96
2023-05-22T04:02:00,mcc,31.50
2023-05-22T04:03:00,mcc,36.11
2023-05-22T04:04:00,mcc,37.59
2023-05-22T04:05:00,mcc,35.71
2023-05-22T04:06:00,mcc,35.50
2023-05-22T04:07:00,mcc,36.80
2023-05-22T04:08:00,mcc,34.09
2023-05-22T04:09:00,mcc,34.99
2023-05-22T04:10:00,mcc,35.02
2023-05-22T04:11:00,mcc,34.01
2023-05-22T04:12:00,mcc,35.64
2023-05-22T04:13:00,mcc,44.35
2023-05-22T04:14:00,mcc,36.40
2023-05-22T04:15:00,mcc,34.76
2023-05-22T04:16:00,mcc,34.82
2023-05-22T04:17:00,mcc,37.23
2023-05-22T04:18:00,mcc,33.09
2023-05-22T04:19:00,mcc,33.75
2023-05-22T04:20:00,mcc,34.88
2023-05-22T04:21:00,mcc,35.05
2023-05-22T04:22:00,mcc,34.98
2023-05-22T04:23:00,mcc,35.11
2023-05-22T04:24:00,mcc,34.86
2023-05-22T04:25:00,mcc,32.74
2023-05-22T04:26:00,mcc,33.50
2023-05-22T04:27:00,mcc,35.85
2023-05-22T04:28:00,mcc,33.78
2023-05-22T04:29:00,mcc,32.41
2023-05-22T04:30:00,mcc,37.09
2023-05-22T04:31:00,mcc,33.62
2023-05-22T04:32:00,mcc,34.49
2023-05-22T04:33:00,mcc,38.56
2023-05-22T04:34:00,mcc,37.04
2023-05-22T04:35:00,mcc,37.27
2023-05-22T04:36:00,mcc,36.48
2023-05-22T04:37:00,mcc,36.52
2023-05-22T04:38:00,mcc,35.94
2023-05-22T04:39:00,mcc,33.81
2023-05-22T04:40:00,mcc,34.98
2023-05-22T04:41:00,mcc,31.62
2023-05-22T04:42:00,mcc,32.16
2023-05-22T04:43:00,mcc,35.92
2023-05-22T04:44:00,mcc,33.10
2023-05-22T04:45:00,mcc,34.15
2023-05-22T04:46:00,mcc,36.05
2023-05-22T04:47:00,mcc,34.42
2023-05-22T04:48:00,mcc,34.94
2023-05-22T04:49:00,mcc,37.52
2023-05-22T04:50:00,mcc,36.15
2023-05-22T04:51:00,mcc,33.23
2023-05-22T04:52:00,mcc,34.38
2023-05-22T04:53:00,mcc,34.32
2023-05-22T04:54:00,mcc,34.53
2023-05-22T04:55:00,mcc,33.73
2023-05-22T04:56:00,mcc,35.77
2023-05-22T04:57:00,mcc,33.56
2023-05-22T04:58:00,mcc,35.69
2023-05-22T04:59:00,mcc,37.99
2023-05-22T05:00:00,mcc,34.29
2023-05-22T05:01:00,mcc,37.14
2023-05-22T05:02:00,mcc,37.08
2023-05-22T05:03:00,mcc,37.61
2023-05-22T05:04:00,mcc,38.55
2023-05-22T05:05:00,mcc,49.25
2023-05-22T05:06:00,mcc,34.79
2023-05-22T05:07:00,mcc,36.33
2023-05-22T05:08:00,mcc,35.62
2023-05-22T05:09:00,mcc,36.52
2023-05-22T05:10:00,mcc,35.56
2023-05-22T05:11:00,mcc,33.73
2023-05-22T05:12:00,mcc,38.44
2023-05-22T05:13:00,mcc,32.61
2023-05-22T05:14:00,mcc,41.79
2023-05-22T05:15:00,mcc,38.39
2023-05-22T05:16:00,mcc,36.92
2023-05-22T05:17:00,mcc,38.00
2023-05-22T05:18:00,mcc,38.66
2023-05-22T05:19:00,mcc,36.19
2023-05-22T05:20:00,mcc,36.92
2023-05-22T05:21:00,mcc,35.48
2023-05-22T05:22:00,mcc,33.90
2023-05-22T05:23:00,mcc,30.39
2023-05-22T05:24:00,mcc,30.96
2023-05-22T05:25:00,mcc,37.14
2023-05-22T05:26:00,mcc,34.04
2023-05-22T05:27:00,mcc,32.32
2023-05-22T05:28:00,mcc,36.83
2023-05-22T05:29:00,mcc,33.72
2023-05-22T05:30:00,mcc,34.35
2023-05-22T05:31:00,mcc,35.95
2023-05-22T05:32:00,mcc,33.15
2023-05-22T05:33:00,mcc,33.19
2023-05-22T05:34:00,mcc,35.05
2023-05-22T05:35:00,mcc,35.95
2023-05-22T05:36:00,mcc,33.63
2023-05-22T05:37:00,mcc,32.55
2023-05-22T05:38:00,mcc,32.05
2023-05-22T05:39:00,mcc,30.29
2023-05-22T05:40:00,mcc,30.46
2023-05-22T05:41:00,mcc,32.20
2023-05-22T05:42:00,mcc,31.97
2023-05-22T05:43:00,mcc,32.87
2023-05-22T05:44:00,mcc,36.51
2023-05-22T05:45:00,mcc,35.02
2023-05-22T05:46:00,mcc,31.48
2023-05-22T05:47:00,mcc,34.64
2023-05-22T05:48:00,mcc,32.53
2023-05-22T05:49:00,mcc,31.24
2023-05-22T05:50:00,mcc,35.00
2023-05-22T05:51:00,mcc,32.57
2023-05-22T05:52:00,mcc,32.96
2023-05-22T05:53:00,mcc,34.54
2023-05-22T05:54:00,mcc,36.93
2023-05-22T05:55:00,mcc,33.85
2023-05-22T05:56:00,mcc,31.36
2023-05-22T05:57:00,mcc,32.93
2023-05-22T05:58:00,mcc,33.21
2023-05-22T05:59:00,mcc,38.12
2023-05-22T06:00:00,mcc,45.75
2023-05-22T06:01:00,mcc,45.06
2023-05-22T06:02:00,mcc,49.45
2023-05-22T06:03:00,mcc,54.79
2023-05-22T06:04:00,mcc,42.20
2023-05-22T06:05:00,mcc,40.74
2023-05-22T06:06:00,mcc,39.77
2023-05-22T06:07:00,mcc,35.72
2023-05-22T06:08:00,mcc,36.15
2023-05-22T06:09:00,mcc,36.77
2023-05-22T06:10:00,mcc,45.73
2023-05-22T06:11:00,mcc,38.16
2023-05-22T06:12:00,mcc,37.91
2023-05-22T06:13:00,mcc,39.95
2023-05-22T06:14:00,mcc,41.56
2023-05-22T06:15:00,mcc,47.51
2023-05-22T06:16:00,mcc,42.32
2023-05-22T06:17:00,mcc,37.52
2023-05-22T06:18:00,mcc,36.23
2023-05-22T06:19:00,mcc,38.96
2023-05-22T06:20:00,mcc,48.79
2023-05-22T06:21:00,mcc,49.37
2023-05-22T06:22:00,mcc,39.15
2023-05-22T06:23:00,mcc,41.84
2023-05-22T06:24:00,mcc,55.75
2023-05-22T06:25:00,mcc,44.90
2023-05-22T06:26:00,mcc,56.22
2023-05-22T06:27:00,mcc,60.37
2023-05-22T06:28:00,mcc,56.69
2023-05-22T06:29:00,mcc,58.97
2023-05-22T06:30:00,mcc,59.73
2023-05-22T06:31:00,mcc,60.92
2023-05-22T06:32:00,mcc,66.19
2023-05-22T06:33:00,mcc,62.83
2023-05-22T06:34:00,mcc,62.33
2023-05-22T06:35:00,mcc,71.06
2023-05-22T06:36:00,mcc,58.79
2023-05-22T06:37:00,mcc,73.74
2023-05-22T06:38:00,mcc,56.87
2023-05-22T06:39:00,mcc,47.76
2023-05-22T06:40:00,mcc,50.16
2023-05-22T06:41:00,mcc,50.91
2023-05-22T06:42:00,mcc,49.37
2023-05-22T06:43:00,mcc,56.91
2023-05-22T06:44:00,mcc,59.54
2023-05-22T06:45:00,mcc,54.21
2023-05-22T06:46:00,mcc,58.40
2023-05-22T06:47:00,mcc,61.52
2023-05-22T06:48:00,mcc,62.19
2023-05-22T06:49:00,mcc,61.18
2023-05-22T06:50:00,mcc,63.12
2023-05-22T06:51:00,mcc,67.78
2023-05-22T06:52:00,mcc,64.89
2023-05-22T06:53:00,mcc,62.80
2023-05-22T06:54:00,mcc,64.51
2023-05-22T06:55:00,mcc,54.11
2023-05-22T06:56:00,mcc,54.19
2023-05-22T06:57:00,mcc,63.75
2023-05-22T06:58:00,mcc,61.60
2023-05-22T06:59:00,mcc,52.02
2023-05-22T07:00:00,mcc,51.19
2023-05-22T07:01:00,mcc,63.03
2023-05-22T07:02:00,mcc,55.12
2023-05-22T07:03:00,mcc,64.80
2023-05-22T07:04:00,mcc,55.30
2023-05-22T07:05:00,mcc,60.33
2023-05-22T07:06:00,mcc,62.41
2023-05-22T07:07:00,mcc,62.49
2023-05-22T07:08:00,mcc,62.18
2023-05-22T07:09:00,mcc,61.66
2023-05-22T07:10:00,mcc,63.57
2023-05-22T07:11:00,mcc,61.53
2023-05-22T07:12:00,mcc,62.87
2023-05-22T07:13:00,mcc,66.78
2023-05-22T07:14:00,mcc,56.68
2023-05-22T07:15:00,mcc,70.61
2023-05-22T07:16:00,mcc,55.63
2023-05-22T07:17:00,mcc,56.38
2023-05-22T07:18:00,mcc,67.48
2023-05-22T07:19:00,mcc,65.11
2023-05-22T07:20:00,mcc,66.67
2023-05-22T07:21:00,mcc,59.34
2023-05-22T07:22:00,mcc,56.62
2023-05-22T07:23:00,mcc,72.66
2023-05-22T07:24:00,mcc,55.96
2023-05-22T07:25:00,mcc,55.23
2023-05-22T07:26:00,mcc,66.00
2023-05-22T07:27:00,mcc,55.71
2023-05-22T07:28:00,mcc,54.90
2023-05-22T07:29:00,mcc,53.57
2023-05-22T07:30:00,mcc,52.38
2023-05-22T07:31:00,mcc,63.82
2023-05-22T07:32:00,mcc,63.05
2023-05-22T07:33:00,mcc,58.00
2023-05-22T07:34:00,mcc,55.85
2023-05-22T07:35:00,mcc,58.64
2023-05-22T07:36:00,mcc,63.56
2023-05-22T07:37:00,mcc,76.63
2023-05-22T07:38:00,mcc,66.45
2023-05-22T07:39:00,mcc,65.15
2023-05-22T07:40:00,mcc,64.61
2023-05-22T07:41:00,mcc,59.80
2023-05-22T07:42:00,mcc,61.81
2023-05-22T07:43:00,mcc,61.45
2023-05-22T07:44:00,mcc,72.28
2023-05-22T07:45:00,mcc,60.20
2023-05-22T07:46:00,mcc,59.50
2023-05-22T07:47:00,mcc,71.14
2023-05-22T07:48:00,mcc,60.08
2023-05-22T07:49:00,mcc,62.10
2023-05-22T07:50:00,mcc,66.18
2023-05-22T07:51:00,mcc,69.57
2023-05-22T07:52:00,mcc,62.13
2023-05-22T07:53:00,mcc,64.57
2023-05-22T07:54:00,mcc,67.89
2023-05-22T07:55:00,mcc,59.45
2023-05-22T07:56:00,mcc,59.18
2023-05-22T07:57:00,mcc,57.96
2023-05-22T07:58:00,mcc,59.31
2023-05-22T07:59:00,mcc,57.50
2023-05-22T08:00:00,mcc,58.71
2023-05-22T08:01:00,mcc,59.85
2023-05-22T08:02:00,mcc,66.63
2023-05-22T08:03:00,mcc,56.87
2023-05-22T08:04:00,mcc,67.42
2023-05-22T08:05:00,mcc,66.93
2023-05-22T08:06:00,mcc,75.21
2023-05-22T08:07:00,mcc,57.51
2023-05-22T08:08:00,mcc,64.72
2023-05-22T08:09:00,mcc,58.28
2023-05-22T08:10:00,mcc,59.42
2023-05-22T08:11:00,mcc,58.52
2023-05-22T08:12:00,mcc,58.25
2023-05-22T08:13:00,mcc,56.57
2023-05-22T08:14:00,mcc,66.47
2023-05-22T08:15:00,mcc,69.01
2023-05-22T08:16:00,mcc,59.02
2023-05-22T08:17:00,mcc,71.55
2023-05-22T08:18:00,mcc,65.45
2023-05-22T08:19:00,mcc,63.55
2023-05-22T08:20:00,mcc,62.87
2023-05-22T08:21:00,mcc,71.27
2023-05-22T08:22:00,mcc,60.08
2023-05-22T08:23:00,mcc,59.77
2023-05-22T08:24:00,mcc,68.76
2023-05-22T08:25:00,mcc,58.54
2023-05-22T08:26:00,mcc,55.86
2023-05-22T08:27:00,mcc,67.06
2023-05-22T08:28:00,mcc,59.12
2023-05-22T08:29:00,mcc,58.81
2023-05-22T08:30:00,mcc,61.82
2023-05-22T08:31:00,mcc,60.10
2023-05-22T08:32:00,mcc,60.66
2023-05-22T08:33:00,mcc,69.18
2023-05-22T08:34:00,mcc,58.93
2023-05-22T08:35:00,mcc,74.41
2023-05-22T08:36:00,mcc,59.59
2023-05-22T08:37:00,mcc,57.93
2023-05-22T08:38:00,mcc,57.75
2023-05-22T08:39:00,mcc,66.69
2023-05-22T08:40:00,mcc,53.77
2023-05-22T08:41:00,mcc,54.68
2023-05-22T08:42:00,mcc,59.44
2023-05-22T08:43:00,mcc,65.70
2023-05-22T08:44:00,mcc,62.09
2023-05-22T08:45:00,mcc,70.76
2023-05-22T08:46:00,mcc,60.84
2023-05-22T08:47:00,mcc,60.93
2023-05-22T08:48:00,mcc,60.89
2023-05-22T08:49:00,mcc,57.75
2023-05-22T08:50:00,mcc,58.27
2023-05-22T08:51:00,mcc,57.82
2023-05-22T08:52:00,mcc,66.29
2023-05-22T08:53:00,mcc,62.00
2023-05-22T08:54:00,mcc,58.66
2023-05-22T08:55:00,mcc,60.52
2023-05-22T08:56:00,mcc,60.07
2023-05-22T08:57:00,mcc,60.84
2023-05-22T08:58:00,mcc,70.62
2023-05-22T08:59:00,mcc,62.04
2023-05-22T09:00:00,mcc,62.84
2023-05-22T09:01:00,mcc,61.78
2023-05-22T09:02:00,mcc,59.99
2023-05-22T09:03:00,mcc,59.37
2023-05-22T09:04:00,mcc,68.91
2023-05-22T09:05:00,mcc,70.31
2023-05-22T09:06:00,mcc,70.91
2023-05-22T09:07:00,mcc,59.22
2023-05-22T09:08:00,mcc,57.37
2023-05-22T09:09:00,mcc,60.60
2023-05-22T09:10:00,mcc,67.20
2023-05-22T09:11:00,mcc,59.36
2023-05-22T09:12:00,mcc,61.73
2023-05-22T09:13:00,mcc,81.83
2023-05-22T09:14:00,mcc,66.41
2023-05-22T09:15:00,mcc,62.56
2023-05-22T09:16:00,mcc,61.02
2023-05-22T09:17:00,mcc,66.53
2023-05-22T09:18:00,mcc,57.21
2023-05-22T09:19:00,mcc,60.73
2023-05-22T09:20:00,mcc,58.87
2023-05-22T09:21:00,mcc,75.05
2023-05-22T09:22:00,mcc,62.51
2023-05-22T09:23:00,mcc,56.93
2023-05-22T09:24:00,mcc,65.20
2023-05-22T09:25:00,mcc,58.08
2023-05-22T09:26:00,mcc,57.90
2023-05-22T09:27:00,mcc,58.59
2023-05-22T09:28:00,mcc,69.45
2023-05-22T09:29:00,mcc,57.46
2023-05-22T09:30:00,mcc,57.83
2023-05-22T09:31:00,mcc,68.85
2023-05-22T09:32:00,mcc,58.08
2023-05-22T09:33:00,mcc,57.01
2023-05-22T09:34:00,mcc,66.93
2023-05-22T09:35:00,mcc,57.79
2023-05-22T09:36:00,mcc,60.34
2023-05-22T09:37:00,mcc,62.15
2023-05-22T09:38:00,mcc,67.36
2023-05-22T09:39:00,mcc,60.08
2023-05-22T09:40:00,mcc,69.73
2023-05-22T09:41:00,mcc,67.94
2023-05-22T09:42:00,mcc,59.84
2023-05-22T09:43:00,mcc,60.23
2023-05-22T09:44:00,mcc,61.68
2023-05-22T09:45:00,mcc,82.18
2023-05-22T09:46:00,mcc,76.33
2023-05-22T09:47:00,mcc,64.43
2023-05-22T09:48:00,mcc,74.83
2023-05-22T09:49:00,mcc,62.61
2023-05-22T09:50:00,mcc,61.77
2023-05-22T09:51:00,mcc,63.37
2023-05-22T09:52:00,mcc,73.62
2023-05-22T09:53:00,mcc,71.62
2023-05-22T09:54:00,mcc,68.60
2023-05-22T09:55:00,mcc,71.14
2023-05-22T09:56:00,mcc,67.31
2023-05-22T09:57:00,mcc,69.50
2023-05-22T09:58:00,mcc,76.96
2023-05-22T09:59:00,mcc,66.12
2023-05-22T10:00:00,mcc,74.91
2023-05-22T10:01:00,mcc,74.38
2023-05-22T10:02:00,mcc,72.65
2023-05-22T10:03:00,mcc,73.27
2023-05-22T10:04:00,mcc,74.73
2023-05-22T10:05:00,mcc,72.11
2023-05-22T10:06:00,mcc,58.90
2023-05-22T10:07:00,mcc,92.99
2023-05-22T10:08:00,mcc,59.95
2023-05-22T10:09:00,mcc,61.49
2023-05-22T10:10:00,mcc,66.84
2023-05-22T10:11:00,mcc,64.51
2023-05-22T10:12:00,mcc,66.22
2023-05-22T10:13:00,mcc,65.55
2023-05-22T10:14:00,mcc,61.49
2023-05-22T10:15:00,mcc,65.68
2023-05-22T10:16:00,mcc,67.79
2023-05-22T10:17:00,mcc,65.55
2023-05-22T10:18:00,mcc,70.99
2023-05-22T10:19:00,mcc,78.38
2023-05-22T10:20:00,mcc,64.49
2023-05-22T10:21:00,mcc,64.74
2023-05-22T10:22:00,mcc,65.43
2023-05-22T10:23:00,mcc,59.33
2023-05-22T10:24:00,mcc,59.58
2023-05-22T10:25:00,mcc,62.53
2023-05-22T10:26:00,mcc,66.05
2023-05-22T10:27:00,mcc,61.72
2023-05-22T10:28:00,mcc,60.49
2023-05-22T10:29:00,mcc,64.35
2023-05-22T10:30:00,mcc,60.85
2023-05-22T10:31:00,mcc,62.63
2023-05-22T10:32:00,mcc,70.53
2023-05-22T10:33:00,mcc,62.76
2023-05-22T10:34:00,mcc,60.36
2023-05-22T10:35:00,mcc,61.42
2023-05-22T10:36:00,mcc,59.77
2023-05-22T10:37:00,mcc,58.52
2023-05-22T10:38:00,mcc,71.19
2023-05-22T10:39:00,mcc,60.14
2023-05-22T10:40:00,mcc,59.93
2023-05-22T10:41:00,mcc,61.95
2023-05-22T10:42:00,mcc,59.70
2023-05-22T10:43:00,mcc,58.92
2023-05-22T10:44:00,mcc,60.84
2023-05-22T10:45:00,mcc,58.49
2023-05-22T10:46:00,mcc,60.12
2023-05-22T10:47:00,mcc,60.43
2023-05-22T10:48:00,mcc,67.86
2023-05-22T10:49:00,mcc,58.78
2023-05-22T10:50:00,mcc,60.19
2023-05-22T10:51:00,mcc,66.34
2023-05-22T10:52:00,mcc,60.82
2023-05-22T10:53:00,mcc,62.53
2023-05-22T10:54:00,mcc,58.78
2023-05-22T10:55:00,mcc,60.90
2023-05-22T10:56:00,mcc,85.74
2023-05-22T10:57:00,mcc,67.50
2023-05-22T10:58:00,mcc,60.23
2023-05-22T10:59:00,mcc,61.52
2023-05-22T11:00:00,mcc,58.86
2023-05-22T11:01:00,mcc,58.65
2023-05-22T11:02:00,mcc,67.94
2023-05-22T11:03:00,mcc,67.91
2023-05-22T11:04:00,mcc,67.16
2023-05-22T11:05:00,mcc,59.28
2023-05-22T11:06:00,mcc,62.18
2023-05-22T11:07:00,mcc,63.15
2023-05-22T11:08:00,mcc,59.61
2023-05-22T11:09:00,mcc,68.17
2023-05-22T11:10:00,mcc,62.37
2023-05-22T11:11:00,mcc,60.80
2023-05-22T11:12:00,mcc,61.51
2023-05-22T11:13:00,mcc,61.96
2023-05-22T11:14:00,mcc,66.02
2023-05-22T11:15:00,mcc,74.31
2023-05-22T11:16:00,mcc,54.23
2023-05-22T11:17:00,mcc,55.19
2023-05-22T11:18:00,mcc,57.16
2023-05-22T11:19:00,mcc,63.03
2023-05-22T11:20:00,mcc,59.97
2023-05-22T11:21:00,mcc,56.87
2023-05-22T11:22:00,mcc,56.63
2023-05-22T11:23:00,mcc,62.21
2023-05-22T11:24:00,mcc,58.85
2023-05-22T11:25:00,mcc,57.81
2023-05-22T11:26:00,mcc,62.25
2023-05-22T11:27:00,mcc,62.21
2023-05-22T11:28:00,mcc,67.13
2023-05-22T11:29:00,mcc,60.92
2023-05-22T11:30:00,mcc,62.02
2023-05-22T11:31:00,mcc,59.80
2023-05-22T11:32:00,mcc,66.62
2023-05-22T11:33:00,mcc,67.95
2023-05-22T11:34:00,mcc,65.97
2023-05-22T11:35:00,mcc,55.88
2023-05-22T11:36:00,mcc,56.68
2023-05-22T11:37:00,mcc,59.01
2023-05-22T11:38:00,mcc,57.02
2023-05-22T11:39:00,mcc,58.90
2023-05-22T11:40:00,mcc,56.78
2023-05-22T11:41:00,mcc,57.08
2023-05-22T11:42:00,mcc,58.56
2023-05-22T11:43:00,mcc,58.63
2023-05-22T11:44:00,mcc,57.36
2023-05-22T11:45:00,mcc,57.97
2023-05-22T11:46:00,mcc,57.31
2023-05-22T11:47:00,mcc,57.35
2023-05-22T11:48:00,mcc,58.56
2023-05-22T11:49:00,mcc,65.09
2023-05-22T11:50:00,mcc,66.02
2023-05-22T11:51:00,mcc,68.10
2023-05-22T11:52:00,mcc,66.11
2023-05-22T11:53:00,mcc,71.86
2023-05-22T11:54:00,mcc,67.32
2023-05-22T11:55:00,mcc,85.35
2023-05-22T11:56:00,mcc,78.44
2023-05-22T11:57:00,mcc,65.70
2023-05-22T11:58:00,mcc,63.33
2023-05-22T11:59:00,mcc,59.61
2023-05-22T12:00:00,mcc,58.14
2023-05-22T12:01:00,mcc,58.38
2023-05-22T12:02:00,mcc,57.50
2023-05-22T12:03:00,mcc,58.06
2023-05-22T12:04:00,mcc,57.57
2023-05-22T12:05:00,mcc,56.10
2023-05-22T12:06:00,mcc,54.39
2023-05-22T12:07:00,mcc,60.48
2023-05-22T12:08:00,mcc,65.98
2023-05-22T12:09:00,mcc,57.42
2023-05-22T12:10:00,mcc,58.53
2023-05-22T12:11:00,mcc,56.73
2023-05-22T12:12:00,mcc,56.07
2023-05-22T12:13:00,mcc,57.68
2023-05-22T12:14:00,mcc,69.44
2023-05-22T12:15:00,mcc,61.34
2023-05-22T12:16:00,mcc,63.02
2023-05-22T12:17:00,mcc,62.22
2023-05-22T12:18:00,mcc,62.05
2023-05-22T12:19:00,mcc,62.55
2023-05-22T12:20:00,mcc,67.59
2023-05-22T12:21:00,mcc,59.16
2023-05-22T12:22:00,mcc,61.60
2023-05-22T12:23:00,mcc,60.17
2023-05-22T12:24:00,mcc,60.58
2023-05-22T12:25:00,mcc,61.94
2023-05-22T12:26:00,mcc,62.31
2023-05-22T12:27:00,mcc,69.80
2023-05-22T12:28:00,mcc,61.17
2023-05-22T12:29:00,mcc,61.76
2023-05-22T12:30:00,mcc,58.87
2023-05-22T12:31:00,mcc,63.68
2023-05-22T12:32:00,mcc,68.67
2023-05-22T12:33:00,mcc,69.53
2023-05-22T12:34:00,mcc,64.60
2023-05-22T12:35:00,mcc,67.65
2023-05-22T12:36:00,mcc,62.45
2023-05-22T12:37:00,mcc,66.10
2023-05-22T12:38:00,mcc,65.28
2023-05-22T12:39:00,mcc,74.03
2023-05-22T12:40:00,mcc,67.12
2023-05-22T12:41:00,mcc,63.37
2023-05-22T12:42:00,mcc,63.70
2023-05-22T12:43:00,mcc,66.24
2023-05-22T12:44:00,mcc,61.12
2023-05-22T12:45:00,mcc,69.21
2023-05-22T12:46:00,mcc,66.07
2023-05-22T12:47:00,mcc,58.37
2023-05-22T12:48:00,mcc,84.70
2023-05-22T12:49:00,mcc,75.00
2023-05-22T12:50:00,mcc,73.00
2023-05-22T12:51:00,mcc,74.84
2023-05-22T12:52:00,mcc,59.65
2023-05-22T12:53:00,mcc,61.39
2023-05-22T12:54:00,mcc,60.39
2023-05-22T12:55:00,mcc,61.51
2023-05-22T12:56:00,mcc,60.98
2023-05-22T12:57:00,mcc,69.84
2023-05-22T12:58:00,mcc,71.19
2023-05-22T12:59:00,mcc,63.39
2023-05-22T13:00:00,mcc,63.90
2023-05-22T13:01:00,mcc,63.56
2023-05-22T13:02:00,mcc,64.54
2023-05-22T13:03:00,mcc,62.41
2023-05-22T13:04:00,mcc,68.95
2023-05-22T13:05:00,mcc,59.02
2023-05-22T13:06:00,mcc,58.63
2023-05-22T13:07:00,mcc,59.81
2023-05-22T13:08:00,mcc,60.65
2023-05-22T13:09:00,mcc,62.14
2023-05-22T13:10:00,mcc,69.48
2023-05-22T13:11:00,mcc,61.83
2023-05-22T13:12:00,mcc,78.67
2023-05-22T13:13:00,mcc,64.14
2023-05-22T13:14:00,mcc,69.12
2023-05-22T13:15:00,mcc,63.59
2023-05-22T13:16:00,mcc,72.17
2023-05-22T13:17:00,mcc,68.67
2023-05-22T13:18:00,mcc,67.77